Flag for Colombia Weather past 2 weeks in Santa Marta, Colombia

Now
90 °F

Overcast.


Feels Like: 98 °F
Forecast: N/A
Wind: 14 mph from North

Location: Santa Marta / Simon Bolivar

Current Time: May 25, 2015 at 5:59:11 PM

Latest Report: May 25, 2015 at 5:00 PM


Visibility: 5 mi

Pressure: 29.80 "Hg

Humidity: 59%

Dew point: 73 °F

Location of Santa MartaLocation

Historic Weather in Santa Marta — Graph

°F

Santa Marta temperature yesterday

Maximum temperature yesterday: 99 °F (at 2:00 PM)
Minimum temperature yesterday: 82 °F (at 6:00 AM)
Average temperature yesterday: 89 °F

Past Weeks' High & Low Weather Summary

 TemperatureHumidityPressure
High100 °F (May 12, 1:00 PM)89% (May 13, 7:00 AM)29.96 "Hg (May 13, 7:00 AM)
Low79 °F (May 20, 6:00 AM)40% (May 12, 1:00 PM)29.68 "Hg (May 13, 5:00 PM)
Average88 °F67%29.83 "Hg
* Reported May 10 5:00 PM — May 25 5:00 PM, Santa Marta, Weather by CustomWeather, © 2015

Note: Actual official high and low records may vary slightly from our data, if they occured in-between our weather recording intervals... More about our weather records

Advertising

Santa Marta weather history for previous 24 hours

 ConditionsComfort  
Time TempWeatherWind HumidityBarometerVisibility
5:00 PM
Mon, May 25
90 °FOvercast.14 mph59%29.80 "Hg5 mi
4:00 PM88 °FOvercast.9 mph66%29.83 "Hg5 mi
3:00 PM88 °FOvercast.No wind70%29.86 "Hg5 mi
2:00 PM90 °FPartly sunny.No wind67%29.86 "Hg5 mi
1:00 PM90 °FPartly sunny.No wind67%29.89 "Hg5 mi
12:00 PM88 °FPartly sunny.7 mph75%29.90 "HgN/A
10:55 AM86 °FPartly sunny.5 mph75%29.91 "HgN/A
10:00 AM86 °FOvercast.5 mph75%29.92 "HgN/A
9:00 AM84 °FOvercast.7 mph74%29.93 "HgN/A
8:00 AM86 °FOvercast.7 mph62%29.90 "HgN/A
7:00 AM82 °FOvercast.7 mph70%29.89 "HgN/A
6:00 AM81 °FPartly sunny.5 mph74%29.87 "HgN/A
10:00 PM
Sun, May 24
86 °FPassing clouds.5 mph66%29.83 "HgN/A
9:00 PM86 °FPassing clouds.7 mph66%29.82 "HgN/A
8:00 PM86 °FPassing clouds.12 mph66%29.81 "HgN/A
7:00 PM88 °FPassing clouds.14 mph62%29.77 "HgN/A
6:00 PM91 °FPartly sunny.9 mph56%29.76 "HgN/A
5:00 PM93 °FPartly sunny.14 mph53%29.75 "HgN/A
Weather by CustomWeather, © 2015

See weather overviewHow to use our weather pages